Orbital Elements at Epoch 2459200.5 (2020-Dec-17.0) TDB
Reference: JPL 19 (heliocentric ecliptic J2000)
Element | Value | Uncertainty (1-sigma) | Units |
e | .2374575986303128 | 8.4305e-08 | |
a | 2.532226490975302 | 8.8812e-09 | au |
q | 1.930930069240243 | 2.1531e-07 | au |
i | 2.968019068661546 | 7.3398e-06 | deg |
node | 102.3095534686301 | 0.00010625 | deg |
peri | 248.5371204988292 | 0.00010767 | deg |
M | 97.82568371766679 | 1.68e-05 | deg |
tp | 2458800.552819197846 (2019-Nov-13.05281920) | 6.7743e-05 | TDB |
period | 1471.811692155578 4.03 | 7.7431e-06 2.12e-08 | d yr |
n | .244596507772508 | 1.2868e-09 | deg/d |
Q | 3.133522912710361 | 1.099e-08 | au |
|
| | Orbit Determination Parameters
Additional Information
|